Showing default

COSMOS 84, 1574

Orbit data source: Space-Track

COSMOS 84, 1574 is a payload satellite owned by OKB-10 (CIS) in LEO that was launched on Fri, 03 Sep 1965 UTC via a KOSMOS 65S3 launch vehicle from the Tyuratam Missile And Space Complex (TTMTR). Payload-class satellites include a variety of spacecraft equipped with specific instruments for various scientific and technological missions. These include communications satellites like Starlink; space stations such as the ISS; scientific satellites like the Hubble; Earth observation satellites from companies like Planet Labs, Umbra, and HawkEye 360; GPS; miniature CubeSats for education and research; and military/defense satellites.

Loading next visibility...
Identifier
1574, 1965-070E
Orbit
LEO
Last TLE update
17 hours ago
Origin
Manufacturer
OKB-10
Mission
Defense Communications
Bus & Motor
STRELA-1 11F610, Unknown motor
Mass
50 kg wet, 50 kg dry
Launch date (UTC)
1965-09-03 (60 years ago)
Launch vehicle
KOSMOS 65S3
Launch site
Tyuratam Missile And Space Complex (TTMTR)
Object type
Payload
Rocket body
Debris
Shape & HBR
Poly, 0.8 m
Radar Cross Section
0.731 m², Medium (>0.1 m² and < 1m²)

Expand to show TLE details & history

TLE from 17 hours ago
0 COSMOS 84
1  1574U 65070E   25128.51460932 -.00000093  00000-0 -92739-5 0  9992
2  1574  56.0548  52.5071 0065514  63.8611 106.9575 12.37031642696792
Epoch: 2025-05-08T12:21Z
Definitive object data (Epoch: 2025-05-08T12:21:02.245Z)
Latitude
6.97772°
Longitude
175.96126°
Altitude
1,535.027 km
Speed
7.093 km/s
True Right ascension
15h 11m 13s
True Declination
6° 56' 26"
Sunlit
Object was in full shadow at TLE epoch
Visualization TLE readout
Latitude
2.83451°
Longitude
0.747°
Altitude
1,494.813 km
Speed
7.129 km/s
Apparent Right ascension
02h 34m 24s
Apparent Declination
-16° 52' 21"
Sunlit
Object is in daylight
Visualization observer readout
Local Sidereal Time
13:03:06
Azimuth
312.762° NW
Elevation
-59.623°
Doppler factor
1
Orbital elements
Apogee altitude
1,570.774 km
Perigee altitude
1,467.299 km
Semi-major axis
7,897.173 km
Eccentricity
0.0065514
Inclination
56.0548°
RAAN
52.5071°
Arg. of periapsis
63.8611°
True anomaly
107.67386°
Mean anomaly
106.9575°
Eccentric anomaly
107.31586°
Mean motion
3.09268 °/min
BSTAR
-0.0000092739
Orbital period
116.4 mins
Loading maneuver chart data...
Loading SW <> Apogee altitude chart data...
Loading historical data...
Loading historical data...
Loading historical data...
Loading historical data...
Loading historical data...
Loading historical data...
Loading historical data...
Other satellites on launch #70 in the year 1965 (1965-09-03 UTC)

COSMOS 84 Visibility forecast

Observer location: undefined°, undefined°

Span
Click to sort rows by Start time (UTC) header in descending order
Start Az.
Max El. time (UTC)
Max El. Az.
Max El.
End time (UTC)
End Az.
16 mins2025-05-09 05:28:31.135Z308.498° NW2025-05-09 05:36:31.135Z227.645° WSW41.64°2025-05-09 05:44:31.135Z155.245° SSE
5 mins2025-05-09 07:34:31.135Z262.695° W2025-05-09 07:36:31.135Z248.934° W12.523°2025-05-09 07:39:31.135Z228.799° WSW
16 mins2025-05-09 20:31:31.135Z202.104° SSW2025-05-09 20:38:31.135Z138.088° SSE40.871°2025-05-09 20:47:31.135Z50.79° ENE
15 mins2025-05-09 22:33:31.135Z259.328° W2025-05-09 22:40:31.135Z322.703° NNW36.322°2025-05-09 22:48:31.135Z39.544° NE
13 mins2025-05-10 00:38:31.135Z304.47° NW2025-05-10 00:44:31.135Z353.234° N25.235°2025-05-10 00:51:31.135Z49.836° ENE
14 mins2025-05-10 02:42:31.135Z323.722° NNW2025-05-10 02:49:31.135Z30.733° NE31.775°2025-05-10 02:56:31.135Z88.112° E
10 mins2025-05-10 04:44:31.135Z313.07° NW2025-05-10 04:51:31.135Z243.521° WSW44.826°2025-05-10 04:54:31.135Z145.368° SSE
|